Time,TemperatureF,DewpointF,PressureIn,WindDirection,WindDirectionDegrees,WindSpeedMPH,WindSpeedGustMPH,Humidity,HourlyPrecipIn,Conditions,Clouds,dailyrainin,SoftwareType,DateUTC
2013-07-01 00:01:00,72.0,71.1,29.86,East,90,3.1,3.1,97,0.00,,,0.01,meteobridge,2013-07-01 04:01:00,
2013-07-01 00:02:00,72.0,71.1,29.86,SE,135,2.2,3.1,97,0.00,,,0.01,meteobridge,2013-07-01 04:02:00,
2013-07-01 00:07:00,71.8,70.9,29.86,East,90,5.4,5.4,97,0.00,,,0.01,meteobridge,2013-07-01 04:07:00,
2013-07-01 00:12:00,71.8,70.9,29.85,SE,135,3.8,4.5,97,0.00,,,0.01,meteobridge,2013-07-01 04:12:00,
2013-07-01 00:17:00,72.0,71.1,29.85,South,180,4.5,4.5,97,0.00,,,0.01,meteobridge,2013-07-01 04:17:00,
2013-07-01 00:22:00,72.0,71.1,29.84,East,90,5.4,6.0,97,0.00,,,0.01,meteobridge,2013-07-01 04:22:00,
2013-07-01 00:28:00,72.1,71.2,29.84,East,90,4.5,6.0,97,0.00,,,0.01,meteobridge,2013-07-01 04:28:00,
2013-07-01 00:33:00,72.1,71.2,29.84,East,90,3.1,3.1,97,0.00,,,0.01,meteobridge,2013-07-01 04:33:00,
2013-07-01 00:38:00,72.1,71.2,29.84,SE,135,3.8,3.8,97,0.00,,,0.01,meteobridge,2013-07-01 04:38:00,
2013-07-01 00:43:00,72.1,71.2,29.84,East,90,4.5,5.4,97,0.00,,,0.01,meteobridge,2013-07-01 04:43:00,
2013-07-01 00:48:00,72.1,71.2,29.84,East,90,3.1,3.8,97,0.00,,,0.01,meteobridge,2013-07-01 04:48:00,
2013-07-01 00:54:00,72.1,71.2,29.84,SE,135,1.6,3.1,97,0.00,,,0.01,meteobridge,2013-07-01 04:54:00,
2013-07-01 00:59:00,72.1,71.2,29.84,East,90,3.8,4.5,97,0.00,,,0.01,meteobridge,2013-07-01 04:59:00,
2013-07-01 01:04:00,72.1,71.2,29.84,SE,135,3.8,5.4,97,0.00,,,0.01,meteobridge,2013-07-01 05:04:00,
2013-07-01 01:09:00,72.1,71.2,29.84,SE,135,3.1,3.1,97,0.00,,,0.01,meteobridge,2013-07-01 05:09:00,
2013-07-01 01:14:00,72.1,71.2,29.84,SE,135,1.6,1.6,97,0.00,,,0.01,meteobridge,2013-07-01 05:14:00,
2013-07-01 01:19:00,72.1,71.2,29.85,SE,135,1.6,1.6,97,0.00,,,0.01,meteobridge,2013-07-01 05:19:00,
2013-07-01 01:25:00,72.0,71.1,29.85,SE,135,2.2,3.1,97,0.00,,,0.01,meteobridge,2013-07-01 05:25:00,
2013-07-01 01:30:00,72.1,71.2,29.85,SE,135,2.2,2.2,97,0.00,,,0.01,meteobridge,2013-07-01 05:30:00,
2013-07-01 01:35:00,72.1,71.2,29.85,SE,135,2.2,3.8,97,0.00,,,0.01,meteobridge,2013-07-01 05:35:00,
2013-07-01 01:40:00,72.1,71.2,29.85,East,90,4.5,4.5,97,0.00,,,0.01,meteobridge,2013-07-01 05:40:00,
2013-07-01 01:45:00,72.3,71.4,29.85,East,90,3.8,3.8,97,0.00,,,0.01,meteobridge,2013-07-01 05:45:00,
2013-07-01 01:50:00,72.3,71.4,29.85,East,90,3.1,4.5,97,0.00,,,0.01,meteobridge,2013-07-01 05:50:00,
2013-07-01 01:56:00,72.3,71.4,29.85,SE,135,1.6,3.1,97,0.00,,,0.01,meteobridge,2013-07-01 05:56:00,
2013-07-01 02:01:00,72.1,71.2,29.85,SE,135,1.6,1.6,97,0.00,,,0.01,meteobridge,2013-07-01 06:01:00,
2013-07-01 02:06:00,72.1,71.2,29.85,SE,135,1.6,2.2,97,0.00,,,0.01,meteobridge,2013-07-01 06:06:00,
2013-07-01 02:11:00,72.3,71.4,29.85,SE,135,2.2,2.2,97,0.00,,,0.01,meteobridge,2013-07-01 06:11:00,
2013-07-01 02:16:00,72.1,71.2,29.85,East,90,3.1,3.1,97,0.00,,,0.01,meteobridge,2013-07-01 06:16:00,
2013-07-01 02:21:00,72.3,71.4,29.85,SE,135,2.2,2.2,97,0.00,,,0.01,meteobridge,2013-07-01 06:21:00,
2013-07-01 02:27:00,72.3,71.4,29.85,SE,135,1.6,2.2,97,0.00,,,0.01,meteobridge,2013-07-01 06:27:00,
2013-07-01 02:32:00,72.3,71.4,29.85,SE,135,1.6,2.2,97,0.00,,,0.01,meteobridge,2013-07-01 06:32:00,
2013-07-01 02:37:00,72.1,71.2,29.85,SE,135,3.1,3.1,97,0.00,,,0.01,meteobridge,2013-07-01 06:37:00,
2013-07-01 02:42:00,72.3,71.4,29.84,East,90,2.2,2.2,97,0.00,,,0.01,meteobridge,2013-07-01 06:42:00,
2013-07-01 02:47:00,72.3,71.4,29.85,SE,135,2.2,3.1,97,0.00,,,0.01,meteobridge,2013-07-01 06:47:00,
2013-07-01 02:52:00,72.1,71.2,29.84,SE,135,3.1,3.1,97,0.00,,,0.01,meteobridge,2013-07-01 06:52:00,
2013-07-01 02:58:00,72.3,71.4,29.84,East,90,2.2,2.2,97,0.00,,,0.01,meteobridge,2013-07-01 06:58:00,
2013-07-01 03:03:00,72.3,71.4,29.84,SE,135,2.2,2.2,97,0.00,,,0.01,meteobridge,2013-07-01 07:03:00,
2013-07-01 03:08:00,72.3,71.4,29.84,SE,135,1.6,1.6,97,0.00,,,0.01,meteobridge,2013-07-01 07:08:00,
2013-07-01 03:13:00,72.3,71.4,29.84,South,180,1.6,1.6,97,0.00,,,0.01,meteobridge,2013-07-01 07:13:00,
2013-07-01 03:18:00,72.3,71.4,29.84,South,180,1.6,1.6,97,0.00,,,0.01,meteobridge,2013-07-01 07:18:00,
2013-07-01 03:23:00,72.5,71.6,29.84,South,180,1.6,1.6,97,0.00,,,0.01,meteobridge,2013-07-01 07:23:00,
2013-07-01 03:29:00,72.5,71.6,29.84,South,180,0.7,0.7,97,0.00,,,0.01,meteobridge,2013-07-01 07:29:00,
2013-07-01 03:34:00,72.5,71.6,29.84,South,180,0.7,0.7,97,0.00,,,0.01,meteobridge,2013-07-01 07:34:00,
2013-07-01 03:39:00,72.5,71.6,29.85,South,180,0.7,1.6,97,0.00,,,0.01,meteobridge,2013-07-01 07:39:00,
2013-07-01 03:44:00,72.7,71.8,29.84,South,180,1.6,2.2,97,0.00,,,0.01,meteobridge,2013-07-01 07:44:00,
2013-07-01 03:49:00,72.7,71.8,29.84,East,90,2.2,2.2,97,0.00,,,0.01,meteobridge,2013-07-01 07:49:00,
2013-07-01 03:54:00,72.9,72.0,29.85,East,90,1.6,1.6,97,0.00,,,0.01,meteobridge,2013-07-01 07:54:00,
2013-07-01 04:00:00,72.9,72.0,29.85,SE,135,1.6,3.1,97,0.00,,,0.01,meteobridge,2013-07-01 08:00:00,
2013-07-01 04:05:00,72.9,72.0,29.84,East,90,1.6,1.6,97,0.05,,,0.06,meteobridge,2013-07-01 08:05:00,
2013-07-01 04:10:00,72.9,72.0,29.84,East,90,1.6,2.2,97,0.05,,,0.06,meteobridge,2013-07-01 08:10:00,
2013-07-01 04:15:00,73.0,72.1,29.85,East,90,1.6,1.6,97,0.05,,,0.06,meteobridge,2013-07-01 08:15:00,
2013-07-01 04:20:00,73.0,72.1,29.84,East,90,2.2,2.2,97,0.05,,,0.06,meteobridge,2013-07-01 08:20:00,
2013-07-01 04:25:00,73.0,72.1,29.85,East,90,2.2,3.1,97,0.05,,,0.06,meteobridge,2013-07-01 08:25:00,
2013-07-01 04:31:00,73.0,72.1,29.84,East,90,3.8,3.8,97,0.05,,,0.06,meteobridge,2013-07-01 08:31:00,
2013-07-01 04:36:00,73.0,72.1,29.85,SE,135,2.2,2.2,97,0.05,,,0.06,meteobridge,2013-07-01 08:36:00,
2013-07-01 04:41:00,73.0,72.1,29.85,ESE,113,3.1,3.1,97,0.05,,,0.06,meteobridge,2013-07-01 08:41:00,
2013-07-01 04:46:00,73.0,72.1,29.85,South,180,1.6,2.2,97,0.05,,,0.06,meteobridge,2013-07-01 08:46:00,
2013-07-01 04:51:00,73.0,72.1,29.85,SE,135,0.7,0.7,97,0.05,,,0.06,meteobridge,2013-07-01 08:51:00,
2013-07-01 04:56:00,73.0,72.1,29.85,SE,135,0.0,0.0,97,0.05,,,0.06,meteobridge,2013-07-01 08:56:00,
2013-07-01 05:02:00,73.0,72.1,29.85,South,180,1.6,2.2,97,0.01,,,0.06,meteobridge,2013-07-01 09:02:00,
2013-07-01 05:07:00,73.0,72.1,29.85,SE,135,2.2,3.1,97,0.00,,,0.06,meteobridge,2013-07-01 09:07:00,
2013-07-01 05:12:00,73.2,72.3,29.85,East,90,2.2,2.2,97,0.00,,,0.06,meteobridge,2013-07-01 09:12:00,
2013-07-01 05:17:00,73.2,72.3,29.85,SE,135,1.6,2.2,97,0.00,,,0.06,meteobridge,2013-07-01 09:17:00,
2013-07-01 05:22:00,73.2,72.3,29.85,South,180,1.6,3.1,97,0.00,,,0.06,meteobridge,2013-07-01 09:22:00,
2013-07-01 05:27:00,73.2,72.3,29.85,East,90,3.8,3.8,97,0.00,,,0.06,meteobridge,2013-07-01 09:27:00,
2013-07-01 05:33:00,73.2,72.3,29.85,East,90,3.1,3.1,97,0.00,,,0.06,meteobridge,2013-07-01 09:33:00,
2013-07-01 05:38:00,73.2,72.3,29.85,SE,135,2.2,2.2,97,0.00,,,0.06,meteobridge,2013-07-01 09:38:00,
2013-07-01 05:43:00,73.2,72.3,29.86,East,90,3.1,3.8,97,0.00,,,0.06,meteobridge,2013-07-01 09:43:00,
2013-07-01 05:48:00,73.2,72.3,29.86,East,90,3.1,4.5,97,0.00,,,0.06,meteobridge,2013-07-01 09:48:00,
2013-07-01 05:53:00,73.2,72.3,29.86,ENE,68,3.8,3.8,97,0.00,,,0.06,meteobridge,2013-07-01 09:53:00,
2013-07-01 05:58:00,73.2,72.3,29.86,SE,135,4.5,4.5,97,0.00,,,0.06,meteobridge,2013-07-01 09:58:00,
2013-07-01 06:04:00,73.2,72.3,29.87,SE,135,4.5,4.5,97,0.00,,,0.06,meteobridge,2013-07-01 10:04:00,
2013-07-01 06:09:00,73.2,72.3,29.87,East,90,4.5,4.5,97,0.00,,,0.06,meteobridge,2013-07-01 10:09:00,
2013-07-01 06:14:00,73.2,72.3,29.87,East,90,3.1,4.5,97,0.00,,,0.06,meteobridge,2013-07-01 10:14:00,
2013-07-01 06:19:00,73.4,73.0,29.87,East,90,6.9,6.9,99,0.00,,,0.06,meteobridge,2013-07-01 10:19:00,
2013-07-01 06:24:00,73.6,73.2,29.87,SE,135,6.9,6.9,99,0.00,,,0.06,meteobridge,2013-07-01 10:24:00,
2013-07-01 06:29:00,73.6,73.2,29.87,SE,135,6.0,6.0,99,0.00,,,0.06,meteobridge,2013-07-01 10:29:00,
2013-07-01 06:35:00,73.6,73.2,29.87,East,90,3.1,5.4,99,0.00,,,0.06,meteobridge,2013-07-01 10:35:00,
2013-07-01 06:40:00,73.6,73.2,29.87,SE,135,0.7,3.8,99,0.00,,,0.06,meteobridge,2013-07-01 10:40:00,
2013-07-01 06:45:00,73.6,73.2,29.87,East,90,1.6,1.6,99,0.00,,,0.06,meteobridge,2013-07-01 10:45:00,
2013-07-01 06:50:00,73.6,73.2,29.87,SW,225,0.7,1.6,99,0.00,,,0.06,meteobridge,2013-07-01 10:50:00,
2013-07-01 06:55:00,73.6,73.2,29.87,West,270,1.6,3.1,99,0.00,,,0.06,meteobridge,2013-07-01 10:55:00,
2013-07-01 07:01:00,73.8,73.4,29.87,West,270,9.8,9.8,99,0.01,,,0.07,meteobridge,2013-07-01 11:01:00,
2013-07-01 07:06:00,73.0,72.1,29.88,WSW,248,11.4,17.4,97,0.05,,,0.11,meteobridge,2013-07-01 11:06:00,
2013-07-01 07:11:00,73.2,72.3,29.90,SW,225,3.8,3.8,97,0.08,,,0.14,meteobridge,2013-07-01 11:11:00,
2013-07-01 07:16:00,72.3,71.4,29.89,SE,135,2.2,4.5,97,0.33,,,0.39,meteobridge,2013-07-01 11:16:00,
2013-07-01 07:21:00,71.1,70.5,29.88,SW,225,4.5,5.4,98,0.56,,,0.61,meteobridge,2013-07-01 11:21:00,
2013-07-01 07:26:00,70.9,70.3,29.89,SW,225,12.1,13.0,98,0.63,,,0.69,meteobridge,2013-07-01 11:26:00,
2013-07-01 07:32:00,71.1,70.5,29.89,South,180,3.1,8.3,98,0.64,,,0.70,meteobridge,2013-07-01 11:32:00,
2013-07-01 07:37:00,70.9,70.3,29.89,SW,225,4.5,4.5,98,0.65,,,0.71,meteobridge,2013-07-01 11:37:00,
2013-07-01 07:42:00,70.7,70.2,29.89,South,180,5.4,5.4,98,0.66,,,0.72,meteobridge,2013-07-01 11:42:00,
2013-07-01 07:47:00,70.3,69.8,29.89,SE,135,3.1,3.1,98,0.67,,,0.73,meteobridge,2013-07-01 11:47:00,
2013-07-01 07:52:00,70.5,70.0,29.89,South,180,1.6,3.1,98,0.69,,,0.74,meteobridge,2013-07-01 11:52:00,
2013-07-01 07:57:00,70.5,70.0,29.89,SE,135,2.2,2.2,98,0.70,,,0.76,meteobridge,2013-07-01 11:57:00,
2013-07-01 08:03:00,70.5,70.0,29.90,SE,135,2.2,2.2,98,0.69,,,0.76,meteobridge,2013-07-01 12:03:00,
2013-07-01 08:08:00,70.3,69.8,29.89,SE,135,3.1,3.1,98,0.67,,,0.79,meteobridge,2013-07-01 12:08:00,
2013-07-01 08:13:00,70.5,70.0,29.89,East,90,3.1,3.8,98,0.56,,,0.80,meteobridge,2013-07-01 12:13:00,
2013-07-01 08:18:00,70.5,70.0,29.89,East,90,3.8,3.8,98,0.41,,,0.80,meteobridge,2013-07-01 12:18:00,
2013-07-01 08:23:00,70.7,70.2,29.90,East,90,2.2,3.1,98,0.13,,,0.80,meteobridge,2013-07-01 12:23:00,
2013-07-01 08:28:00,70.7,70.2,29.90,SE,135,2.2,3.1,98,0.11,,,0.80,meteobridge,2013-07-01 12:28:00,
2013-07-01 08:34:00,70.7,70.2,29.91,SE,135,3.8,3.8,98,0.11,,,0.80,meteobridge,2013-07-01 12:34:00,
2013-07-01 08:39:00,70.9,70.3,29.91,SE,135,2.2,3.1,98,0.09,,,0.80,meteobridge,2013-07-01 12:39:00,
2013-07-01 08:44:00,70.9,70.3,29.91,SE,135,2.2,3.8,98,0.07,,,0.80,meteobridge,2013-07-01 12:44:00,
2013-07-01 08:49:00,71.1,70.5,29.91,East,90,1.6,4.5,98,0.06,,,0.80,meteobridge,2013-07-01 12:49:00,
2013-07-01 08:54:00,71.6,70.7,29.91,SW,225,2.2,2.2,97,0.05,,,0.80,meteobridge,2013-07-01 12:54:00,
2013-07-01 08:59:00,71.8,70.9,29.92,SW,225,3.8,4.5,97,0.05,,,0.80,meteobridge,2013-07-01 12:59:00,
2013-07-01 09:05:00,71.8,70.9,29.92,South,180,4.5,4.5,97,0.02,,,0.80,meteobridge,2013-07-01 13:05:00,
2013-07-01 09:10:00,71.8,70.9,29.92,SW,225,2.2,3.8,97,0.01,,,0.80,meteobridge,2013-07-01 13:10:00,
2013-07-01 09:15:00,71.8,70.9,29.93,South,180,3.1,3.8,97,0.00,,,0.80,meteobridge,2013-07-01 13:15:00,
2013-07-01 09:20:00,72.0,71.1,29.93,SE,135,3.8,6.0,97,0.01,,,0.81,meteobridge,2013-07-01 13:20:00,
2013-07-01 09:25:00,72.9,72.0,29.92,East,90,2.2,2.2,97,0.01,,,0.81,meteobridge,2013-07-01 13:25:00,
2013-07-01 09:30:00,73.4,73.0,29.92,SE,135,3.8,3.8,99,0.01,,,0.81,meteobridge,2013-07-01 13:30:00,
2013-07-01 09:35:00,75.0,74.7,29.92,East,90,3.1,3.1,99,0.01,,,0.81,meteobridge,2013-07-01 13:35:00,
2013-07-01 09:41:00,74.3,73.9,29.92,South,180,1.6,3.8,99,0.01,,,0.81,meteobridge,2013-07-01 13:41:00,
2013-07-01 09:46:00,75.0,74.7,29.93,ESE,113,2.2,2.2,99,0.01,,,0.81,meteobridge,2013-07-01 13:46:00,
2013-07-01 09:51:00,74.3,73.8,29.92,SW,225,3.8,3.8,98,0.01,,,0.81,meteobridge,2013-07-01 13:51:00,
2013-07-01 09:56:00,74.3,73.4,29.92,South,180,2.2,3.1,97,0.01,,,0.81,meteobridge,2013-07-01 13:56:00,
2013-07-01 10:01:00,74.3,73.0,29.93,South,180,1.6,1.6,96,0.01,,,0.81,meteobridge,2013-07-01 14:01:00,
2013-07-01 10:06:00,74.8,73.9,29.92,SE,135,4.5,4.5,97,0.01,,,0.81,meteobridge,2013-07-01 14:06:00,
2013-07-01 10:12:00,75.7,74.1,29.92,SE,135,3.1,3.8,95,0.01,,,0.81,meteobridge,2013-07-01 14:12:00,
2013-07-01 10:17:00,76.8,75.0,29.92,East,90,2.2,3.1,94,0.01,,,0.81,meteobridge,2013-07-01 14:17:00,
2013-07-01 10:22:00,77.0,73.8,29.93,South,180,4.5,6.0,90,0.00,,,0.81,meteobridge,2013-07-01 14:22:00,
2013-07-01 10:27:00,77.2,73.4,29.92,SE,135,3.8,3.8,88,0.00,,,0.81,meteobridge,2013-07-01 14:27:00,
2013-07-01 10:32:00,77.4,73.2,29.92,South,180,3.1,4.5,87,0.00,,,0.81,meteobridge,2013-07-01 14:32:00,
2013-07-01 10:37:00,77.5,72.7,29.92,SE,135,3.1,3.1,85,0.00,,,0.81,meteobridge,2013-07-01 14:37:00,
2013-07-01 10:43:00,77.0,72.1,29.92,SE,135,3.8,4.5,85,0.00,,,0.81,meteobridge,2013-07-01 14:43:00,
2013-07-01 10:48:00,77.2,73.0,29.92,SW,225,3.1,3.8,87,0.00,,,0.81,meteobridge,2013-07-01 14:48:00,
2013-07-01 10:53:00,78.3,73.4,29.93,SSW,203,3.1,5.4,85,0.00,,,0.81,meteobridge,2013-07-01 14:53:00,
2013-07-01 10:58:00,79.5,72.5,29.92,South,180,3.1,4.5,79,0.00,,,0.81,meteobridge,2013-07-01 14:58:00,
2013-07-01 11:03:00,80.1,72.5,29.91,East,90,4.5,4.5,78,0.00,,,0.81,meteobridge,2013-07-01 15:03:00,
2013-07-01 11:08:00,82.4,72.5,29.92,SW,225,6.0,6.0,72,0.00,,,0.81,meteobridge,2013-07-01 15:08:00,
2013-07-01 11:14:00,81.7,72.1,29.92,West,270,4.5,4.5,73,0.00,,,0.81,meteobridge,2013-07-01 15:14:00,
2013-07-01 11:19:00,80.2,71.2,29.92,SE,135,4.5,4.5,74,0.00,,,0.81,meteobridge,2013-07-01 15:19:00,
2013-07-01 11:24:00,80.2,71.2,29.92,SW,225,5.4,6.0,74,0.00,,,0.81,meteobridge,2013-07-01 15:24:00,
2013-07-01 11:29:00,81.3,71.8,29.92,South,180,3.8,4.5,73,0.00,,,0.81,meteobridge,2013-07-01 15:29:00,
2013-07-01 11:34:00,82.2,72.3,29.92,West,270,6.0,6.0,72,0.00,,,0.81,meteobridge,2013-07-01 15:34:00,
2013-07-01 11:39:00,80.2,71.2,29.92,SW,225,3.8,4.5,74,0.00,,,0.81,meteobridge,2013-07-01 15:39:00,
2013-07-01 11:45:00,79.7,71.1,29.92,SW,225,3.1,4.5,75,0.00,,,0.81,meteobridge,2013-07-01 15:45:00,
2013-07-01 11:50:00,80.2,71.6,29.92,SW,225,2.2,2.2,75,0.00,,,0.81,meteobridge,2013-07-01 15:50:00,
2013-07-01 11:55:00,80.6,71.6,29.92,South,180,3.1,3.1,74,0.00,,,0.81,meteobridge,2013-07-01 15:55:00,
2013-07-01 12:00:00,80.4,72.1,29.92,SE,135,1.6,2.2,76,0.00,,,0.81,meteobridge,2013-07-01 16:00:00,
2013-07-01 12:05:00,81.0,72.7,29.92,South,180,3.1,3.1,76,0.00,,,0.81,meteobridge,2013-07-01 16:05:00,
2013-07-01 12:10:00,81.0,72.7,29.92,South,180,1.6,2.2,76,0.00,,,0.81,meteobridge,2013-07-01 16:10:00,
2013-07-01 12:16:00,81.1,72.5,29.91,East,90,0.7,2.2,75,0.00,,,0.81,meteobridge,2013-07-01 16:16:00,
2013-07-01 12:21:00,81.9,73.6,29.92,South,180,1.6,1.6,76,0.00,,,0.81,meteobridge,2013-07-01 16:21:00,
2013-07-01 12:26:00,82.9,74.1,29.92,SW,225,2.2,3.1,75,0.00,,,0.81,meteobridge,2013-07-01 16:26:00,
2013-07-01 12:31:00,82.6,73.0,29.92,South,180,3.1,3.1,73,0.00,,,0.81,meteobridge,2013-07-01 16:31:00,
2013-07-01 12:36:00,83.7,73.6,29.91,SE,135,3.8,5.4,72,0.00,,,0.81,meteobridge,2013-07-01 16:36:00,
2013-07-01 12:41:00,82.9,72.5,29.92,South,180,2.2,3.1,71,0.00,,,0.81,meteobridge,2013-07-01 16:41:00,
2013-07-01 12:47:00,82.2,72.7,29.91,South,180,7.6,7.6,73,0.00,,,0.81,meteobridge,2013-07-01 16:47:00,
2013-07-01 12:52:00,81.5,72.9,29.91,East,90,6.9,6.9,75,0.00,,,0.81,meteobridge,2013-07-01 16:52:00,
2013-07-01 12:57:00,81.7,72.5,29.91,SE,135,2.2,5.4,74,0.00,,,0.81,meteobridge,2013-07-01 16:57:00,
2013-07-01 13:02:00,82.0,72.9,29.91,East,90,6.0,6.0,74,0.00,,,0.81,meteobridge,2013-07-01 17:02:00,
2013-07-01 13:07:00,82.2,72.7,29.91,SSE,158,5.4,5.4,73,0.00,,,0.81,meteobridge,2013-07-01 17:07:00,
2013-07-01 13:12:00,81.7,71.8,29.91,SE,135,6.0,9.8,72,0.00,,,0.81,meteobridge,2013-07-01 17:12:00,
2013-07-01 13:18:00,81.9,72.7,29.91,East,90,6.0,9.2,74,0.00,,,0.81,meteobridge,2013-07-01 17:18:00,
2013-07-01 13:23:00,82.6,72.7,29.91,South,180,4.5,4.5,72,0.00,,,0.81,meteobridge,2013-07-01 17:23:00,
2013-07-01 13:28:00,82.6,72.7,29.91,SE,135,3.8,3.8,72,0.00,,,0.81,meteobridge,2013-07-01 17:28:00,
2013-07-01 13:33:00,82.9,73.4,29.91,SE,135,6.0,6.0,73,0.00,,,0.81,meteobridge,2013-07-01 17:33:00,
2013-07-01 13:38:00,82.2,73.0,29.92,SE,135,3.1,3.1,74,0.00,,,0.81,meteobridge,2013-07-01 17:38:00,
2013-07-01 13:43:00,82.4,73.8,29.92,SE,135,3.8,3.8,75,0.00,,,0.81,meteobridge,2013-07-01 17:43:00,
2013-07-01 13:49:00,82.4,72.0,29.92,East,90,3.1,5.4,71,0.00,,,0.81,meteobridge,2013-07-01 17:49:00,
2013-07-01 13:54:00,82.9,73.0,29.92,South,180,3.8,3.8,72,0.00,,,0.81,meteobridge,2013-07-01 17:54:00,
2013-07-01 13:59:00,82.6,72.1,29.91,SE,135,3.1,3.1,71,0.00,,,0.81,meteobridge,2013-07-01 17:59:00,
2013-07-01 14:04:00,82.6,72.7,29.91,SE,135,5.4,5.4,72,0.00,,,0.81,meteobridge,2013-07-01 18:04:00,
2013-07-01 14:09:00,82.4,72.5,29.91,South,180,3.1,3.1,72,0.00,,,0.81,meteobridge,2013-07-01 18:09:00,
2013-07-01 14:11:00,82.4,72.0,29.91,SE,135,1.6,3.1,71,0.00,,,0.81,meteobridge,2013-07-01 18:11:00,
2013-07-01 14:16:00,84.7,73.0,29.91,East,90,2.2,2.2,68,0.00,,,0.81,meteobridge,2013-07-01 18:16:00,
2013-07-01 14:22:00,84.0,72.3,29.91,SW,225,3.8,3.8,68,0.00,,,0.81,meteobridge,2013-07-01 18:22:00,
2013-07-01 14:27:00,84.2,72.9,29.91,East,90,3.8,3.8,69,0.00,,,0.81,meteobridge,2013-07-01 18:27:00,
2013-07-01 14:32:00,84.2,72.5,29.91,South,180,1.6,1.6,68,0.00,,,0.81,meteobridge,2013-07-01 18:32:00,
2013-07-01 14:37:00,84.6,72.0,29.91,SE,135,2.2,5.4,66,0.00,,,0.81,meteobridge,2013-07-01 18:37:00,
2013-07-01 14:42:00,83.8,72.5,29.90,SE,135,1.6,3.8,69,0.00,,,0.81,meteobridge,2013-07-01 18:42:00,
2013-07-01 14:47:00,84.0,72.3,29.90,SE,135,2.2,3.1,68,0.00,,,0.81,meteobridge,2013-07-01 18:47:00,
2013-07-01 14:53:00,84.4,72.1,29.90,SE,135,3.8,3.8,67,0.00,,,0.81,meteobridge,2013-07-01 18:53:00,
2013-07-01 14:58:00,83.7,72.3,29.90,SSE,158,3.8,4.5,69,0.00,,,0.81,meteobridge,2013-07-01 18:58:00,
2013-07-01 15:03:00,83.8,73.0,29.90,SE,135,3.1,3.1,70,0.00,,,0.81,meteobridge,2013-07-01 19:03:00,
2013-07-01 15:08:00,83.7,72.9,29.91,SE,135,2.2,3.1,70,0.00,,,0.81,meteobridge,2013-07-01 19:08:00,
2013-07-01 15:13:00,84.7,73.4,29.90,SE,135,1.6,3.1,69,0.00,,,0.81,meteobridge,2013-07-01 19:13:00,
2013-07-01 15:18:00,84.7,72.5,29.90,East,90,6.0,6.0,67,0.00,,,0.81,meteobridge,2013-07-01 19:18:00,
2013-07-01 15:24:00,84.0,72.7,29.90,South,180,3.8,4.5,69,0.00,,,0.81,meteobridge,2013-07-01 19:24:00,
2013-07-01 15:29:00,85.8,73.6,29.90,SE,135,3.1,4.5,67,0.00,,,0.81,meteobridge,2013-07-01 19:29:00,
2013-07-01 15:34:00,86.5,73.4,29.90,East,90,4.5,4.5,65,0.00,,,0.81,meteobridge,2013-07-01 19:34:00,
2013-07-01 15:39:00,86.0,72.9,29.90,East,90,6.9,6.9,65,0.00,,,0.81,meteobridge,2013-07-01 19:39:00,
2013-07-01 15:44:00,84.9,73.2,29.90,North,0,3.1,3.1,68,0.00,,,0.81,meteobridge,2013-07-01 19:44:00,
2013-07-01 15:49:00,85.8,73.6,29.90,East,90,4.5,4.5,67,0.00,,,0.81,meteobridge,2013-07-01 19:49:00,
2013-07-01 15:55:00,85.5,73.8,29.91,SE,135,3.1,4.5,68,0.00,,,0.81,meteobridge,2013-07-01 19:55:00,
2013-07-01 16:00:00,85.3,73.6,29.90,SE,135,3.8,3.8,68,0.00,,,0.81,meteobridge,2013-07-01 20:00:00,
2013-07-01 16:05:00,86.2,73.4,29.90,East,90,2.2,2.2,66,0.00,,,0.81,meteobridge,2013-07-01 20:05:00,
2013-07-01 16:10:00,86.2,73.4,29.90,SE,135,3.8,4.5,66,0.00,,,0.81,meteobridge,2013-07-01 20:10:00,
2013-07-01 16:15:00,84.9,74.1,29.90,SE,135,3.1,4.5,70,0.00,,,0.81,meteobridge,2013-07-01 20:15:00,
2013-07-01 16:20:00,86.2,73.9,29.89,East,90,4.5,4.5,67,0.00,,,0.81,meteobridge,2013-07-01 20:20:00,
2013-07-01 16:26:00,86.7,74.5,29.89,South,180,2.2,2.2,67,0.00,,,0.81,meteobridge,2013-07-01 20:26:00,
2013-07-01 16:31:00,89.4,75.2,29.89,South,180,0.7,1.6,63,0.00,,,0.81,meteobridge,2013-07-01 20:31:00,
2013-07-01 16:36:00,92.1,75.2,29.89,East,90,3.8,3.8,58,0.00,,,0.81,meteobridge,2013-07-01 20:36:00,
2013-07-01 16:41:00,90.1,72.9,29.89,NNW,338,3.1,3.1,57,0.00,,,0.81,meteobridge,2013-07-01 20:41:00,
2013-07-01 16:46:00,86.7,73.9,29.89,SE,135,3.8,3.8,66,0.00,,,0.81,meteobridge,2013-07-01 20:46:00,
2013-07-01 16:51:00,85.6,75.2,29.89,South,180,2.2,2.2,71,0.00,,,0.81,meteobridge,2013-07-01 20:51:00,
2013-07-01 16:56:00,85.1,75.0,29.89,South,180,4.5,4.5,72,0.00,,,0.81,meteobridge,2013-07-01 20:56:00,
2013-07-01 17:02:00,86.0,74.7,29.89,South,180,0.7,1.6,69,0.00,,,0.81,meteobridge,2013-07-01 21:02:00,
2013-07-01 17:07:00,87.6,75.4,29.89,SE,135,2.2,2.2,67,0.00,,,0.81,meteobridge,2013-07-01 21:07:00,
2013-07-01 17:12:00,86.9,74.1,29.89,South,180,3.8,3.8,66,0.00,,,0.81,meteobridge,2013-07-01 21:12:00,
2013-07-01 17:17:00,85.6,74.7,29.89,SE,135,6.9,6.9,70,0.00,,,0.81,meteobridge,2013-07-01 21:17:00,
2013-07-01 17:22:00,83.3,75.0,29.89,East,90,6.0,6.0,76,0.00,,,0.81,meteobridge,2013-07-01 21:22:00,
2013-07-01 17:27:00,81.7,75.2,29.89,East,90,3.8,6.0,81,0.00,,,0.81,meteobridge,2013-07-01 21:27:00,
2013-07-01 17:33:00,81.5,75.9,29.89,SE,135,3.1,3.8,83,0.00,,,0.81,meteobridge,2013-07-01 21:33:00,
2013-07-01 17:38:00,82.0,76.3,29.89,East,90,3.1,3.1,83,0.00,,,0.81,meteobridge,2013-07-01 21:38:00,
2013-07-01 17:43:00,82.6,76.5,29.89,East,90,3.1,3.1,82,0.00,,,0.81,meteobridge,2013-07-01 21:43:00,
2013-07-01 17:48:00,82.9,76.1,29.89,SE,135,1.6,3.1,80,0.00,,,0.81,meteobridge,2013-07-01 21:48:00,
2013-07-01 17:53:00,82.6,76.1,29.89,ESE,113,2.2,2.2,81,0.00,,,0.81,meteobridge,2013-07-01 21:53:00,
2013-07-01 17:58:00,82.0,76.6,29.90,South,180,6.0,6.0,84,0.00,,,0.81,meteobridge,2013-07-01 21:58:00,
2013-07-01 18:04:00,80.8,75.6,29.90,East,90,6.0,6.9,84,0.00,,,0.81,meteobridge,2013-07-01 22:04:00,
2013-07-01 18:09:00,80.6,75.4,29.90,South,180,4.5,6.0,84,0.00,,,0.81,meteobridge,2013-07-01 22:09:00,
2013-07-01 18:14:00,80.2,75.4,29.90,SE,135,7.6,9.8,85,0.00,,,0.81,meteobridge,2013-07-01 22:14:00,
2013-07-01 18:19:00,79.9,75.0,29.90,East,90,10.7,10.7,85,0.00,,,0.81,meteobridge,2013-07-01 22:19:00,
2013-07-01 18:24:00,79.7,75.2,29.91,East,90,13.0,13.0,86,0.00,,,0.81,meteobridge,2013-07-01 22:24:00,
2013-07-01 18:29:00,79.3,74.8,29.90,SE,135,6.9,13.0,86,0.00,,,0.81,meteobridge,2013-07-01 22:29:00,
2013-07-01 18:35:00,79.2,75.0,29.91,SE,135,8.3,12.1,87,0.00,,,0.81,meteobridge,2013-07-01 22:35:00,
2013-07-01 18:40:00,78.8,75.0,29.91,SE,135,5.4,8.3,88,0.00,,,0.81,meteobridge,2013-07-01 22:40:00,
2013-07-01 18:45:00,78.6,75.0,29.91,East,90,6.0,9.8,89,0.00,,,0.81,meteobridge,2013-07-01 22:45:00,
2013-07-01 18:50:00,78.4,75.2,29.91,SE,135,6.9,6.9,90,0.00,,,0.81,meteobridge,2013-07-01 22:50:00,
2013-07-01 18:55:00,78.3,75.0,29.91,East,90,9.2,10.7,90,0.00,,,0.81,meteobridge,2013-07-01 22:55:00,
2013-07-01 19:00:00,78.3,75.0,29.91,SE,135,10.7,10.7,90,0.00,,,0.81,meteobridge,2013-07-01 23:00:00,
2013-07-01 19:06:00,78.1,74.8,29.92,East,90,5.4,6.9,90,0.00,,,0.81,meteobridge,2013-07-01 23:06:00,
2013-07-01 19:11:00,78.1,75.2,29.91,ESE,113,4.5,8.3,91,0.00,,,0.81,meteobridge,2013-07-01 23:11:00,
2013-07-01 19:16:00,77.9,75.0,29.91,SE,135,9.8,9.8,91,0.00,,,0.81,meteobridge,2013-07-01 23:16:00,
2013-07-01 19:21:00,77.9,75.0,29.91,East,90,4.5,4.5,91,0.00,,,0.81,meteobridge,2013-07-01 23:21:00,
2013-07-01 19:26:00,77.7,74.8,29.92,South,180,3.1,9.8,91,0.00,,,0.81,meteobridge,2013-07-01 23:26:00,
2013-07-01 19:31:00,77.9,75.4,29.92,SSE,158,6.0,6.0,92,0.00,,,0.81,meteobridge,2013-07-01 23:31:00,
2013-07-01 19:37:00,77.7,75.2,29.92,ESE,113,6.0,10.7,92,0.00,,,0.81,meteobridge,2013-07-01 23:37:00,
2013-07-01 19:42:00,77.7,75.2,29.92,East,90,7.6,7.6,92,0.00,,,0.81,meteobridge,2013-07-01 23:42:00,
2013-07-01 19:47:00,77.7,75.2,29.93,East,90,8.3,8.3,92,0.00,,,0.81,meteobridge,2013-07-01 23:47:00,
2013-07-01 19:52:00,77.5,75.0,29.93,SE,135,4.5,10.7,92,0.00,,,0.81,meteobridge,2013-07-01 23:52:00,
2013-07-01 19:57:00,77.5,75.0,29.93,SE,135,11.4,11.4,92,0.00,,,0.81,meteobridge,2013-07-01 23:57:00,
2013-07-01 20:02:00,77.5,75.0,29.93,SE,135,3.1,3.8,92,0.00,,,0.00,meteobridge,2013-07-02 00:02:00,
2013-07-01 20:08:00,77.5,75.0,29.93,East,90,5.4,11.4,92,0.00,,,0.00,meteobridge,2013-07-02 00:08:00,
2013-07-01 20:13:00,77.5,75.0,29.93,SE,135,9.2,9.2,92,0.00,,,0.00,meteobridge,2013-07-02 00:13:00,
2013-07-01 20:18:00,77.4,74.8,29.93,South,180,9.2,9.2,92,0.00,,,0.00,meteobridge,2013-07-02 00:18:00,
2013-07-01 20:23:00,77.4,74.8,29.93,SW,225,6.9,6.9,92,0.00,,,0.00,meteobridge,2013-07-02 00:23:00,
2013-07-01 20:28:00,77.2,74.7,29.93,SE,135,5.4,6.0,92,0.00,,,0.00,meteobridge,2013-07-02 00:28:00,
2013-07-01 20:33:00,77.2,75.0,29.93,SW,225,6.0,8.3,93,0.00,,,0.00,meteobridge,2013-07-02 00:33:00,
2013-07-01 20:39:00,77.0,74.8,29.93,South,180,6.0,6.0,93,0.00,,,0.00,meteobridge,2013-07-02 00:39:00,
2013-07-01 20:44:00,77.0,74.8,29.93,South,180,8.3,8.3,93,0.00,,,0.00,meteobridge,2013-07-02 00:44:00,
2013-07-01 20:49:00,76.8,75.0,29.93,East,90,5.4,5.4,94,0.00,,,0.00,meteobridge,2013-07-02 00:49:00,
2013-07-01 20:54:00,76.8,75.0,29.93,SE,135,5.4,7.6,94,0.00,,,0.00,meteobridge,2013-07-02 00:54:00,
2013-07-01 20:59:00,76.6,74.8,29.93,SE,135,6.0,6.0,94,0.00,,,0.00,meteobridge,2013-07-02 00:59:00,
2013-07-01 21:04:00,76.5,74.7,29.92,SE,135,4.5,4.5,94,0.00,,,0.00,meteobridge,2013-07-02 01:04:00,
2013-07-01 21:10:00,76.5,74.8,29.93,East,90,6.0,6.0,95,0.00,,,0.00,meteobridge,2013-07-02 01:10:00,
2013-07-01 21:15:00,76.5,74.8,29.94,SSE,158,4.5,6.0,95,0.00,,,0.00,meteobridge,2013-07-02 01:15:00,
2013-07-01 21:20:00,76.3,74.7,29.94,South,180,3.1,3.1,95,0.00,,,0.00,meteobridge,2013-07-02 01:20:00,
2013-07-01 21:25:00,76.3,74.7,29.94,SE,135,3.8,4.5,95,0.00,,,0.00,meteobridge,2013-07-02 01:25:00,
2013-07-01 21:30:00,76.3,75.0,29.94,East,90,3.1,3.8,96,0.00,,,0.00,meteobridge,2013-07-02 01:30:00,
2013-07-01 21:36:00,76.3,75.0,29.95,South,180,5.4,6.0,96,0.00,,,0.00,meteobridge,2013-07-02 01:36:00,
2013-07-01 21:41:00,76.3,75.0,29.95,SW,225,3.1,6.0,96,0.00,,,0.00,meteobridge,2013-07-02 01:41:00,
2013-07-01 21:46:00,76.1,74.8,29.95,SE,135,1.6,3.1,96,0.00,,,0.00,meteobridge,2013-07-02 01:46:00,
2013-07-01 21:51:00,76.1,74.8,29.96,SE,135,4.5,4.5,96,0.00,,,0.00,meteobridge,2013-07-02 01:51:00,
2013-07-01 21:56:00,76.1,74.8,29.96,South,180,3.1,3.1,96,0.00,,,0.00,meteobridge,2013-07-02 01:56:00,
2013-07-01 22:01:00,75.9,74.7,29.96,SE,135,6.9,6.9,96,0.00,,,0.00,meteobridge,2013-07-02 02:01:00,
2013-07-01 22:07:00,75.9,74.7,29.96,East,90,3.8,3.8,96,0.00,,,0.00,meteobridge,2013-07-02 02:07:00,
2013-07-01 22:12:00,75.9,74.7,29.96,East,90,3.1,3.1,96,0.00,,,0.00,meteobridge,2013-07-02 02:12:00,
2013-07-01 22:17:00,75.9,74.7,29.96,East,90,4.5,4.5,96,0.00,,,0.00,meteobridge,2013-07-02 02:17:00,
2013-07-01 22:22:00,75.7,74.8,29.96,East,90,4.5,4.5,97,0.00,,,0.00,meteobridge,2013-07-02 02:22:00,
2013-07-01 22:27:00,75.7,74.8,29.96,SE,135,2.2,2.2,97,0.00,,,0.00,meteobridge,2013-07-02 02:27:00,
2013-07-01 22:32:00,75.6,74.7,29.97,SE,135,3.1,3.1,97,0.00,,,0.00,meteobridge,2013-07-02 02:32:00,
2013-07-01 22:38:00,75.6,74.7,29.96,East,90,3.8,3.8,97,0.00,,,0.00,meteobridge,2013-07-02 02:38:00,
2013-07-01 22:43:00,75.6,74.7,29.97,SE,135,2.2,3.8,97,0.00,,,0.00,meteobridge,2013-07-02 02:43:00,
2013-07-01 22:48:00,75.4,74.5,29.97,SE,135,1.6,3.1,97,0.00,,,0.00,meteobridge,2013-07-02 02:48:00,
2013-07-01 22:53:00,75.2,74.3,29.97,SE,135,3.8,3.8,97,0.00,,,0.00,meteobridge,2013-07-02 02:53:00,
2013-07-01 22:58:00,75.2,74.7,29.97,SE,135,3.1,3.1,98,0.00,,,0.00,meteobridge,2013-07-02 02:58:00,
2013-07-01 23:03:00,75.0,74.7,29.97,East,90,0.7,1.6,99,0.00,,,0.00,meteobridge,2013-07-02 03:03:00,
2013-07-01 23:09:00,74.8,74.5,29.97,South,180,4.5,4.5,99,0.00,,,0.00,meteobridge,2013-07-02 03:09:00,
2013-07-01 23:14:00,74.8,74.5,29.96,East,90,3.1,3.8,99,0.00,,,0.00,meteobridge,2013-07-02 03:14:00,
2013-07-01 23:19:00,75.0,74.7,29.96,SE,135,3.8,3.8,99,0.00,,,0.00,meteobridge,2013-07-02 03:19:00,
2013-07-01 23:24:00,74.8,74.5,29.96,East,90,1.6,2.2,99,0.00,,,0.00,meteobridge,2013-07-02 03:24:00,
2013-07-01 23:29:00,74.8,74.5,29.96,SE,135,1.6,3.8,99,0.00,,,0.00,meteobridge,2013-07-02 03:29:00,
2013-07-01 23:34:00,74.8,74.5,29.97,SW,225,4.5,4.5,99,0.00,,,0.00,meteobridge,2013-07-02 03:34:00,
2013-07-01 23:39:00,74.8,74.5,29.97,SE,135,2.2,3.1,99,0.00,,,0.00,meteobridge,2013-07-02 03:39:00,
2013-07-01 23:45:00,74.8,74.5,29.97,South,180,3.1,3.8,99,0.00,,,0.00,meteobridge,2013-07-02 03:45:00,
2013-07-01 23:50:00,74.8,74.5,29.98,South,180,2.2,4.5,99,0.00,,,0.00,meteobridge,2013-07-02 03:50:00,
2013-07-01 23:55:00,74.8,74.5,29.98,South,180,1.6,4.5,99,0.00,,,0.00,meteobridge,2013-07-02 03:55:00,